[[{"header":{"parameterUnit":"m.s-1","parameterCategory":1,"la1":30.2991,"la2":30.254,"lo1":-89.0895,"lo2":-89.0444,"dy":0.0017,"dx":0.0017,"nx":28,"ny":28,"refTime":"2024-06-08T21:00:00:Z","depth":0,"parameterNumber":2,"parameterNumberName":"U-component_of_WINDS"},"data":[0,0,0,0,0,0,0,0,0,0,0,0,0,0,0,0,0,0,0,0,0,0,0,0,0,0,0,0,0,0,0,0,0,0,0,0,0,0,0,0,0,0,0,0,0,0,0,0,0,0,0,0,0,0,0,0,0,0,-0.6273,-0.6272,0,-0.6199,-0.6198,-0.6197,-0.6166,-0.6166,-0.6167,-0.6167,-0.6089,-0.6087,-0.6085,0,0,0,0,0,0,0,0,0,0,0,0,0,-0.6386,-0.6384,-0.6273,-0.6272,-0.6271,-0.6199,-0.6198,-0.6197,-0.6166,-0.6166,-0.6167,-0.6167,-0.609,-0.6087,-0.6085,0,0,0,0,0,0,0,0,0,0,0,0,0,-0.6327,-0.6383,-0.6273,-0.6247,-0.6244,-0.6199,-0.6198,-0.6197,-0.6166,-0.6166,-0.6167,-0.6167,-0.6091,-0.6087,-0.6084,-0.6059,0,0,-0.6074,-0.6073,0,0,0,0,0,0,0,0,-0.633,-0.6323,-0.6252,-0.6249,-0.6245,-0.6192,-0.6209,-0.615,-0.6166,-0.6196,-0.6167,-0.6167,-0.6123,-0.6117,-0.6103,-0.6055,-0.6052,-0.6074,-0.6072,-0.607,-0.6069,0,0,0,0,0,0,0,-0.6334,-0.6325,-0.6243,-0.6251,-0.6247,-0.6238,-0.623,-0.6198,-0.6159,-0.6193,-0.6191,-0.6182,-0.6121,-0.6106,-0.6101,-0.6051,-0.6074,-0.6071,-0.6069,-0.6068,-0.5979,-0.5978,0,0,0,0,0,0,-0.6343,-0.6329,-0.6246,-0.6241,-0.6289,-0.6236,-0.6227,-0.6209,-0.6159,-0.6152,-0.6182,-0.6181,-0.6111,-0.6104,-0.6098,-0.6064,-0.607,-0.6067,-0.6065,-0.5979,-0.5978,-0.5978,0,0,0,0,0,0,-0.6345,-0.6336,-0.6249,-0.6284,-0.6273,-0.6234,-0.6214,-0.6207,-0.6192,-0.6151,-0.6144,-0.6174,-0.6111,-0.6102,-0.6069,-0.6061,-0.6066,-0.6063,-0.5979,-0.5979,-0.5978,-0.5998,0,0,0,0,0,0,-0.6349,-0.6337,-0.6327,-0.6285,-0.6271,-0.6222,-0.6213,-0.6206,-0.6186,-0.6184,-0.6141,-0.6134,-0.6111,-0.6074,-0.6066,-0.6057,-0.606,-0.598,-0.5979,-0.5978,-0.5998,-0.5998,-0.5999,0,0,0,0,0,-0.6353,-0.6336,-0.6327,-0.6317,-0.6259,-0.6222,-0.6214,-0.6188,-0.6186,-0.6176,-0.6149,-0.6136,-0.6064,-0.6071,-0.6061,-0.6051,-0.598,-0.5979,-0.5979,-0.5998,-0.5998,-0.5999,0,0,0,0,0,0,-0.6378,-0.633,-0.6319,-0.6288,-0.6259,-0.6216,-0.6203,-0.6189,-0.616,-0.6159,-0.6127,-0.6118,-0.6087,-0.6066,-0.6074,-0.6024,-0.6021,-0.6018,-0.6039,-0.6039,-0.6039,-0.6045,-0.6057,0,0,0,0,0,-0.638,-0.6355,-0.6313,-0.629,-0.6276,-0.6242,-0.6225,-0.6207,-0.6176,-0.6163,-0.6134,-0.6104,-0.6074,-0.6056,-0.6026,-0.5995,-0.5985,-0.5983,-0.5984,-0.5984,-0.5982,-0.5963,-0.5962,-0.5975,-0.5975,-0.5975,0,0,-0.6384,-0.6354,-0.634,-0.6294,-0.627,-0.6243,-0.6232,-0.6205,-0.6184,-0.6159,-0.6125,-0.6103,-0.6067,-0.6035,-0.6019,-0.6016,-0.5976,-0.5983,-0.5984,-0.5981,-0.5962,-0.5961,-0.596,-0.5975,-0.5975,-0.5975,0,0,-0.6377,-0.6353,-0.633,-0.6305,-0.6269,-0.6246,-0.6241,-0.62,-0.6184,-0.615,-0.613,-0.6106,-0.6056,-0.6031,-0.6011,-0.5995,-0.598,-0.5986,-0.5987,-0.5969,-0.5968,-0.5967,-0.596,-0.5958,-0.5984,-0.5984,-0.5984,0,-0.6386,-0.6346,-0.632,-0.6293,-0.6273,-0.6249,-0.6225,-0.6203,-0.6158,-0.6145,-0.6143,-0.6079,-0.6053,-0.6014,-0.601,-0.5995,-0.5987,-0.599,-0.5971,-0.5969,-0.5968,-0.5961,-0.5959,-0.5985,-0.5985,-0.5985,-0.5984,0,-0.6359,-0.6332,-0.6317,-0.6275,-0.6254,-0.6229,-0.6197,-0.6179,-0.6163,-0.6141,-0.6106,-0.6074,-0.6037,-0.6027,-0.6011,-0.5985,-0.5984,-0.5977,-0.5973,-0.5968,-0.5961,-0.5958,-0.5986,-0.5986,-0.5985,-0.5985,0,0,-0.6366,-0.6309,-0.6304,-0.6285,-0.6242,-0.622,-0.6194,-0.6158,-0.6142,-0.6113,-0.6089,-0.6047,-0.604,-0.6018,-0.5999,-0.5983,-0.5971,-0.5977,-0.5976,-0.5977,-0.594,-0.5945,-0.5943,-0.5962,-0.5961,-0.5961,-0.5942,0,-0.6353,-0.6305,-0.628,-0.6243,-0.6217,-0.6193,-0.617,-0.6141,-0.612,-0.6094,-0.6069,-0.604,-0.6033,-0.6019,-0.6003,-0.5976,-0.5963,-0.5977,-0.5939,-0.5938,-0.5948,-0.5939,-0.5945,-0.5929,-0.594,-0.5939,-0.5939,0,-0.6332,-0.6302,-0.6262,-0.6222,-0.621,-0.619,-0.6155,-0.6131,-0.6097,-0.6082,-0.6058,-0.6039,-0.601,-0.6009,-0.5967,-0.5977,-0.596,-0.5945,-0.5943,-0.5938,-0.5938,-0.5933,-0.5923,-0.5921,-0.5934,-0.5935,-0.5935,0,-0.634,-0.629,-0.626,-0.6243,-0.6196,-0.6182,-0.6162,-0.6129,-0.6109,-0.6078,-0.6065,-0.6031,-0.6012,-0.5986,-0.5959,-0.5961,-0.592,-0.5916,-0.5906,-0.5906,-0.5898,-0.5898,-0.5885,-0.5888,-0.5888,-0.5888,-0.5888,0,-0.6328,-0.6304,-0.6263,-0.6244,-0.6216,-0.6187,-0.6161,-0.6138,-0.6109,-0.6085,-0.6063,-0.604,-0.6006,-0.5979,-0.5957,-0.5926,-0.5918,-0.5904,-0.5898,-0.5906,-0.5907,-0.5893,-0.5893,-0.5887,-0.5888,-0.5888,-0.5888,0,-0.6332,-0.6304,-0.6269,-0.6227,-0.6215,-0.6197,-0.6161,-0.6141,-0.6118,-0.6088,-0.6079,-0.6043,-0.601,-0.598,-0.5937,-0.5922,-0.589,-0.5883,-0.5901,-0.5898,-0.5889,-0.589,-0.5865,-0.586,-0.5868,-0.5868,-0.5868,0,-0.6326,-0.6307,-0.6263,-0.6245,-0.6225,-0.6198,-0.6177,-0.6148,-0.6127,-0.6087,-0.6072,-0.6038,-0.6009,-0.5958,-0.5927,-0.5893,-0.5885,-0.5879,-0.588,-0.5887,-0.5884,-0.5885,-0.5883,-0.5879,-0.5879,-0.5879,-0.5879,0,-0.6318,-0.6304,-0.6276,-0.6242,-0.6219,-0.6191,-0.6162,-0.6149,-0.6114,-0.6092,-0.6058,-0.6036,-0.5991,-0.5957,-0.592,-0.5898,-0.5882,-0.5879,-0.5874,-0.5881,-0.5892,-0.5885,-0.5901,-0.5879,-0.5879,-0.5879,-0.5879,-0.5879,-0.6316,-0.6298,-0.6264,-0.6233,-0.6208,-0.6182,-0.6161,-0.6136,-0.6107,-0.6069,-0.6053,-0.6019,-0.5985,-0.5933,-0.5912,-0.5884,-0.5881,-0.5874,-0.5873,-0.5871,-0.5872,-0.5897,-0.5877,-0.5877,-0.5877,-0.5877,-0.5877,0,-0.6306,-0.6283,-0.6255,-0.6215,-0.619,-0.6178,-0.6146,-0.6126,-0.6096,-0.6066,-0.6038,-0.5999,-0.5965,-0.5932,-0.5897,-0.5881,-0.5873,-0.5873,-0.5873,-0.5868,-0.5878,-0.5885,-0.588,-0.588,-0.588,-0.588,-0.588,-0.588,-0.6298,-0.6266,-0.6249,-0.6205,-0.6181,-0.6148,-0.613,-0.6105,-0.6081,-0.6038,-0.6011,-0.599,-0.5958,-0.592,-0.5889,-0.588,-0.5867,-0.5869,-0.5858,-0.5867,-0.5867,-0.5867,-0.5874,-0.5867,-0.5867,-0.585,-0.585,-0.585]},{"header":{"parameterUnit":"m.s-1","parameterCategory":1,"la1":30.2991,"la2":30.254,"lo1":-89.0895,"lo2":-89.0444,"dy":0.0017,"dx":0.0017,"nx":28,"ny":28,"refTime":"2024-06-08T21:00:00:Z","depth":0,"parameterNumber":3,"parameterNumberName":"V-component_of_WINDS"},"data":[0,0,0,0,0,0,0,0,0,0,0,0,0,0,0,0,0,0,0,0,0,0,0,0,0,0,0,0,0,0,0,0,0,0,0,0,0,0,0,0,0,0,0,0,0,0,0,0,0,0,0,0,0,0,0,0,0,0,3.2762,3.2762,0,3.2808,3.2808,3.2809,3.2811,3.2811,3.281,3.281,3.2854,3.2856,3.2858,0,0,0,0,0,0,0,0,0,0,0,0,0,3.2674,3.2676,3.2762,3.2762,3.2763,3.2808,3.2808,3.2809,3.2811,3.2811,3.281,3.281,3.2854,3.2856,3.2858,0,0,0,0,0,0,0,0,0,0,0,0,0,3.2715,3.2676,3.2762,3.277,3.2771,3.2808,3.2808,3.2809,3.2812,3.2811,3.281,3.2809,3.2853,3.2856,3.2858,3.2889,0,0,3.2866,3.2867,0,0,0,0,0,0,0,0,3.2713,3.2718,3.2768,3.2769,3.277,3.2803,3.2794,3.2836,3.2812,3.2796,3.281,3.2809,3.2838,3.2841,3.2852,3.2891,3.2893,3.2866,3.2867,3.2869,3.2869,0,0,0,0,0,0,0,3.271,3.2716,3.278,3.2768,3.277,3.277,3.2775,3.2802,3.2821,3.2797,3.2798,3.2803,3.2838,3.2849,3.2853,3.2894,3.2866,3.2868,3.287,3.2871,3.2963,3.2964,0,0,0,0,0,0,3.2706,3.2714,3.2778,3.2781,3.2739,3.2772,3.2778,3.2793,3.282,3.2824,3.2804,3.2803,3.2845,3.285,3.2854,3.2894,3.2869,3.2871,3.2872,3.2962,3.2963,3.2964,0,0,0,0,0,0,3.2704,3.2712,3.2777,3.2748,3.2756,3.2775,3.2792,3.2795,3.2806,3.2825,3.2828,3.2812,3.2845,3.2851,3.2881,3.2896,3.2872,3.2874,3.2961,3.2963,3.2964,3.2973,0,0,0,0,0,0,3.2701,3.2711,3.2723,3.2748,3.2758,3.2803,3.2793,3.2796,3.281,3.281,3.2834,3.2837,3.2845,3.2877,3.2884,3.2899,3.2876,3.296,3.2962,3.2964,3.2972,3.2975,3.2977,0,0,0,0,0,3.2698,3.2723,3.2724,3.2732,3.2774,3.2804,3.2809,3.2819,3.2812,3.2824,3.2837,3.2836,3.2893,3.2881,3.2888,3.2904,3.2959,3.2961,3.2963,3.297,3.2974,3.2977,0,0,0,0,0,0,3.2698,3.2726,3.2728,3.2761,3.278,3.2804,3.282,3.2822,3.2843,3.2842,3.2852,3.2857,3.2887,3.2898,3.2884,3.2936,3.2925,3.2929,3.2928,3.2932,3.2935,3.2932,3.2878,0,0,0,0,0,3.2702,3.2725,3.2748,3.2776,3.2785,3.2801,3.2815,3.2821,3.284,3.2848,3.2863,3.2882,3.2904,3.2918,3.294,3.2973,3.2979,3.2988,3.299,3.2993,3.2996,3.3016,3.302,3.2972,3.2972,3.2971,0,0,3.271,3.2729,3.2742,3.2776,3.2792,3.2815,3.2808,3.2832,3.285,3.2852,3.2882,3.2893,3.2915,3.2947,3.2962,3.2957,3.3011,3.2995,3.2997,3.2999,3.3018,3.3023,3.3027,3.2973,3.2973,3.2972,0,0,3.2738,3.2754,3.2779,3.2795,3.2819,3.283,3.2836,3.286,3.2868,3.2899,3.2901,3.2922,3.2959,3.2975,3.2988,3.3023,3.3023,3.3029,3.3044,3.3064,3.3068,3.3071,3.3084,3.3089,3.3032,3.3032,3.3032,0,3.2745,3.2781,3.2792,3.2817,3.2832,3.2836,3.2862,3.2877,3.2906,3.2916,3.291,3.2959,3.2974,3.3011,3.3019,3.3029,3.3037,3.3027,3.3066,3.307,3.3073,3.3086,3.3091,3.3033,3.3033,3.3033,3.3033,0,3.2789,3.2814,3.2832,3.2862,3.2879,3.2904,3.2918,3.2934,3.2939,3.295,3.2982,3.2999,3.3025,3.3034,3.3038,3.3072,3.3068,3.3064,3.3054,3.3078,3.3091,3.3096,3.3034,3.3034,3.3034,3.3034,0,0,3.2817,3.2854,3.286,3.2875,3.2902,3.2922,3.2947,3.2974,3.2988,3.3008,3.303,3.3062,3.3059,3.3074,3.308,3.3096,3.3125,3.3091,3.3091,3.3097,3.3164,3.3168,3.3173,3.3125,3.3126,3.3126,3.3163,0,3.2849,3.2896,3.2907,3.2947,3.2971,3.2975,3.2998,3.3017,3.3028,3.3049,3.3061,3.3085,3.3079,3.3088,3.3104,3.3118,3.3138,3.3115,3.3146,3.3147,3.3141,3.318,3.3183,3.3217,3.3168,3.3168,3.3169,0,3.2891,3.2915,3.2958,3.2984,3.2994,3.3014,3.304,3.306,3.3082,3.3089,3.3106,3.3111,3.3138,3.3125,3.3163,3.3147,3.316,3.3168,3.317,3.3174,3.316,3.3186,3.3228,3.3233,3.3177,3.3176,3.3175,0,3.2909,3.2951,3.2983,3.2994,3.3025,3.3039,3.3052,3.3074,3.3089,3.3112,3.3122,3.3146,3.316,3.3179,3.319,3.318,3.3227,3.3215,3.3234,3.3234,3.3244,3.3243,3.329,3.3251,3.3251,3.3251,3.325,0,3.2944,3.297,3.2991,3.3011,3.3041,3.3053,3.3082,3.3095,3.3114,3.3136,3.3141,3.3161,3.3174,3.3196,3.3205,3.3235,3.3241,3.3247,3.3249,3.3248,3.3247,3.3257,3.3255,3.3252,3.3252,3.3251,3.3251,0,3.2969,3.2984,3.3019,3.3046,3.3053,3.3074,3.3097,3.3116,3.3127,3.3155,3.3162,3.3181,3.3207,3.322,3.3252,3.3258,3.3293,3.3293,3.3286,3.3287,3.3305,3.3304,3.336,3.3369,3.3323,3.3324,3.3324,0,3.299,3.3011,3.3041,3.3056,3.307,3.3095,3.3112,3.3125,3.3142,3.3169,3.3185,3.3212,3.3234,3.3276,3.3292,3.3317,3.3318,3.3336,3.3322,3.332,3.332,3.3319,3.3321,3.3339,3.3339,3.334,3.334,0,3.3027,3.3034,3.3058,3.3086,3.3106,3.3128,3.3149,3.3161,3.3177,3.3196,3.3224,3.3242,3.3276,3.3303,3.3329,3.3342,3.3344,3.3345,3.335,3.3349,3.3345,3.3348,3.3294,3.3343,3.3343,3.3343,3.3343,3.3342,3.3052,3.3071,3.3096,3.3123,3.3141,3.3161,3.3181,3.3196,3.3219,3.3249,3.3255,3.3285,3.3307,3.3343,3.3357,3.338,3.3376,3.3384,3.3386,3.3388,3.339,3.334,3.3385,3.3384,3.3384,3.3384,3.3384,0,3.309,3.3107,3.3131,3.3162,3.3184,3.3185,3.3209,3.3227,3.3253,3.3274,3.3297,3.3329,3.3356,3.3374,3.3401,3.3416,3.3417,3.3422,3.3422,3.3425,3.3391,3.3384,3.3421,3.3421,3.3421,3.3421,3.3421,3.3421,3.3113,3.3146,3.3156,3.3198,3.3214,3.3244,3.3258,3.3277,3.3294,3.3331,3.3353,3.3365,3.3385,3.3414,3.3438,3.3443,3.3453,3.3458,3.3463,3.3431,3.3427,3.3424,3.3417,3.346,3.346,3.3495,3.3495,3.3495]}]]